[[{"header":{"parameterUnit":"m.s-1","parameterCategory":1,"la1":30.2991,"la2":30.254,"lo1":-89.0895,"lo2":-89.0444,"dy":0.0017,"dx":0.0017,"nx":28,"ny":28,"refTime":"2024-02-02T09:00:00:Z","depth":0,"parameterNumber":2,"parameterNumberName":"U-component_of_WINDS"},"data":[0,0,0,0,0,0,0,0,0,0,0,0,0,0,0,0,0,0,0,0,0,0,0,0,0,0,0,0,0,0,0,0,0,0,0,0,0,0,0,0,0,0,0,0,0,0,0,0,0,0,0,0,0,0,0,0,0,0,-1.3393,-1.3393,0,-1.3424,-1.3424,-1.3425,-1.3387,-1.3386,-1.3385,-1.3383,-1.3417,-1.3419,-1.3421,0,0,0,0,0,0,0,0,0,0,0,0,0,-1.3304,-1.3306,-1.3393,-1.3393,-1.3394,-1.3424,-1.3424,-1.3425,-1.3388,-1.3386,-1.3384,-1.3383,-1.3416,-1.3419,-1.3421,0,0,0,0,0,0,0,0,0,0,0,0,0,-1.334,-1.3307,-1.3393,-1.3379,-1.3378,-1.3424,-1.3424,-1.3425,-1.3388,-1.3386,-1.3384,-1.3382,-1.3415,-1.3419,-1.3422,-1.3484,0,0,-1.3432,-1.3433,0,0,0,0,0,0,0,0,-1.3338,-1.3343,-1.338,-1.338,-1.3379,-1.34,-1.3405,-1.3445,-1.3388,-1.3384,-1.3383,-1.3381,-1.3413,-1.3416,-1.3427,-1.3485,-1.3487,-1.3432,-1.3434,-1.3436,-1.3437,0,0,0,0,0,0,0,-1.3336,-1.3342,-1.3405,-1.3381,-1.338,-1.3372,-1.3375,-1.3413,-1.341,-1.3384,-1.3382,-1.3386,-1.3412,-1.3424,-1.3427,-1.3487,-1.3432,-1.3435,-1.3437,-1.3438,-1.36,-1.3602,0,0,0,0,0,0,-1.3334,-1.334,-1.3404,-1.3406,-1.3353,-1.3375,-1.3378,-1.3395,-1.3409,-1.341,-1.3388,-1.3384,-1.3419,-1.3424,-1.3428,-1.3502,-1.3436,-1.3439,-1.3441,-1.3598,-1.3601,-1.3603,0,0,0,0,0,0,-1.3333,-1.334,-1.3403,-1.3372,-1.338,-1.3379,-1.3398,-1.3397,-1.3408,-1.3412,-1.3411,-1.34,-1.3418,-1.3424,-1.3471,-1.3503,-1.344,-1.3443,-1.3595,-1.3599,-1.3602,-1.3651,0,0,0,0,0,0,-1.333,-1.334,-1.3363,-1.3373,-1.3381,-1.3444,-1.34,-1.3399,-1.3414,-1.3409,-1.3423,-1.3423,-1.3416,-1.3466,-1.3474,-1.3506,-1.3446,-1.3592,-1.3597,-1.3601,-1.3646,-1.3655,-1.3663,0,0,0,0,0,-1.3327,-1.3375,-1.3364,-1.3372,-1.3409,-1.3445,-1.345,-1.3441,-1.3416,-1.344,-1.3443,-1.3423,-1.3499,-1.3471,-1.348,-1.3514,-1.359,-1.3595,-1.36,-1.3642,-1.3654,-1.3663,0,0,0,0,0,0,-1.3369,-1.3376,-1.3364,-1.3416,-1.3431,-1.3439,-1.3468,-1.3453,-1.3475,-1.347,-1.3458,-1.3462,-1.3512,-1.3517,-1.3487,-1.3575,-1.354,-1.3548,-1.3569,-1.358,-1.3589,-1.3586,-1.3448,0,0,0,0,0,-1.3384,-1.3412,-1.3417,-1.3463,-1.3471,-1.3469,-1.3484,-1.3476,-1.349,-1.3496,-1.3502,-1.3517,-1.3545,-1.3563,-1.3588,-1.3648,-1.365,-1.3676,-1.3684,-1.3691,-1.3697,-1.373,-1.3742,-1.362,-1.362,-1.362,0,0,-1.3416,-1.3423,-1.3442,-1.3472,-1.3482,-1.3512,-1.3474,-1.3507,-1.3529,-1.3501,-1.3545,-1.3551,-1.3568,-1.3621,-1.3645,-1.3628,-1.3732,-1.3698,-1.3703,-1.3706,-1.3737,-1.3748,-1.3759,-1.3624,-1.3623,-1.3623,0,0,-1.3489,-1.3497,-1.3537,-1.3548,-1.3564,-1.3562,-1.3572,-1.3583,-1.3585,-1.363,-1.361,-1.3637,-1.3684,-1.3697,-1.371,-1.3791,-1.3774,-1.38,-1.3844,-1.3876,-1.3886,-1.3894,-1.3924,-1.3934,-1.3806,-1.3806,-1.3806,0,-1.3527,-1.357,-1.3559,-1.3594,-1.3609,-1.3585,-1.3626,-1.3637,-1.3661,-1.3672,-1.3652,-1.3712,-1.3721,-1.3778,-1.3798,-1.3809,-1.382,-1.3797,-1.3885,-1.3894,-1.3901,-1.3929,-1.394,-1.3809,-1.3809,-1.3808,-1.3808,0,-1.3616,-1.3647,-1.3677,-1.37,-1.3718,-1.3756,-1.3752,-1.3772,-1.3763,-1.3764,-1.3811,-1.3822,-1.3849,-1.3862,-1.3854,-1.3919,-1.3907,-1.3887,-1.3851,-1.3916,-1.3942,-1.3952,-1.3813,-1.3812,-1.3811,-1.3811,0,0,-1.3714,-1.3732,-1.3743,-1.3754,-1.3771,-1.3795,-1.3833,-1.3859,-1.3877,-1.3895,-1.3926,-1.3968,-1.395,-1.3964,-1.3957,-1.3986,-1.405,-1.3962,-1.3962,-1.3978,-1.4123,-1.4138,-1.415,-1.4039,-1.4041,-1.4043,-1.4122,0,-1.3787,-1.3851,-1.3844,-1.3905,-1.3934,-1.3914,-1.3947,-1.3961,-1.3964,-1.399,-1.3993,-1.4022,-1.3996,-1.4005,-1.4032,-1.4036,-1.4079,-1.4031,-1.4069,-1.4071,-1.4065,-1.4164,-1.4179,-1.4253,-1.4132,-1.4133,-1.4135,0,-1.3881,-1.3902,-1.3966,-1.398,-1.3992,-1.4021,-1.4046,-1.4071,-1.4088,-1.4088,-1.4105,-1.4094,-1.4133,-1.4098,-1.4152,-1.412,-1.4136,-1.4141,-1.4143,-1.4146,-1.4106,-1.4169,-1.4276,-1.4287,-1.415,-1.4149,-1.4148,0,-1.3946,-1.3991,-1.4035,-1.4045,-1.4062,-1.4084,-1.4092,-1.4107,-1.4124,-1.4146,-1.4157,-1.4184,-1.4199,-1.4221,-1.4217,-1.4192,-1.4273,-1.4237,-1.4275,-1.4275,-1.4292,-1.4291,-1.4403,-1.4304,-1.4303,-1.4303,-1.4303,0,-1.4028,-1.4069,-1.4065,-1.4092,-1.4138,-1.413,-1.4175,-1.4181,-1.4194,-1.4224,-1.4208,-1.4236,-1.423,-1.4258,-1.4256,-1.4302,-1.4309,-1.4311,-1.431,-1.4312,-1.4312,-1.4322,-1.4316,-1.4306,-1.4305,-1.4305,-1.4304,0,-1.4108,-1.4107,-1.4155,-1.4167,-1.4172,-1.4204,-1.4216,-1.4242,-1.4244,-1.4281,-1.429,-1.4293,-1.4326,-1.4325,-1.4362,-1.4361,-1.4418,-1.4411,-1.4412,-1.441,-1.4448,-1.4444,-1.4569,-1.4586,-1.4476,-1.4477,-1.4478,0,-1.416,-1.4191,-1.4207,-1.4225,-1.4235,-1.4264,-1.4282,-1.4276,-1.4295,-1.4318,-1.4342,-1.4373,-1.4398,-1.4451,-1.4458,-1.4487,-1.448,-1.4522,-1.4484,-1.4486,-1.4481,-1.4479,-1.4482,-1.4529,-1.4531,-1.4532,-1.4532,0,-1.4253,-1.4252,-1.4277,-1.4303,-1.4325,-1.4345,-1.4363,-1.438,-1.4376,-1.4399,-1.4432,-1.4451,-1.4489,-1.4521,-1.4549,-1.4559,-1.4546,-1.4545,-1.4555,-1.4557,-1.4556,-1.4557,-1.4431,-1.4541,-1.454,-1.454,-1.4539,-1.4539,-1.4321,-1.4347,-1.4363,-1.4392,-1.4406,-1.4424,-1.445,-1.4456,-1.4483,-1.4513,-1.4509,-1.4546,-1.4564,-1.4601,-1.4613,-1.4643,-1.4628,-1.4643,-1.4647,-1.465,-1.4655,-1.4552,-1.4648,-1.4648,-1.4648,-1.4648,-1.4647,0,-1.4413,-1.4422,-1.4449,-1.4476,-1.45,-1.4485,-1.4506,-1.4527,-1.4559,-1.4577,-1.4602,-1.4641,-1.4672,-1.4682,-1.4712,-1.4734,-1.4729,-1.4742,-1.474,-1.4743,-1.4666,-1.4654,-1.4746,-1.4746,-1.4746,-1.4746,-1.4746,-1.4746,-1.4463,-1.4507,-1.4508,-1.456,-1.457,-1.4605,-1.4618,-1.4636,-1.465,-1.4694,-1.4719,-1.4725,-1.4741,-1.4772,-1.4801,-1.4803,-1.4815,-1.4831,-1.4831,-1.4758,-1.4748,-1.4739,-1.4727,-1.4833,-1.4833,-1.4905,-1.4906,-1.4906]},{"header":{"parameterUnit":"m.s-1","parameterCategory":1,"la1":30.2991,"la2":30.254,"lo1":-89.0895,"lo2":-89.0444,"dy":0.0017,"dx":0.0017,"nx":28,"ny":28,"refTime":"2024-02-02T09:00:00:Z","depth":0,"parameterNumber":3,"parameterNumberName":"V-component_of_WINDS"},"data":[0,0,0,0,0,0,0,0,0,0,0,0,0,0,0,0,0,0,0,0,0,0,0,0,0,0,0,0,0,0,0,0,0,0,0,0,0,0,0,0,0,0,0,0,0,0,0,0,0,0,0,0,0,0,0,0,0,0,1.2219,1.222,0,1.2224,1.2224,1.2224,1.2203,1.2202,1.2202,1.2201,1.2204,1.2205,1.2205,0,0,0,0,0,0,0,0,0,0,0,0,0,1.2193,1.2194,1.2219,1.222,1.222,1.2224,1.2224,1.2224,1.2203,1.2202,1.2202,1.2201,1.2204,1.2205,1.2205,0,0,0,0,0,0,0,0,0,0,0,0,0,1.2202,1.2194,1.2219,1.221,1.2209,1.2224,1.2224,1.2224,1.2203,1.2202,1.2201,1.2201,1.2204,1.2204,1.2205,1.2229,0,0,1.2208,1.2209,0,0,0,0,0,0,0,0,1.2201,1.2203,1.2211,1.221,1.221,1.2212,1.2216,1.2226,1.2203,1.2205,1.2201,1.22,1.2207,1.2208,1.2211,1.2229,1.223,1.2208,1.2209,1.2209,1.221,0,0,0,0,0,0,0,1.2201,1.2202,1.2221,1.2211,1.221,1.2205,1.2205,1.2217,1.2211,1.2205,1.2204,1.2205,1.2207,1.221,1.2211,1.223,1.2208,1.2209,1.221,1.221,1.227,1.2271,0,0,0,0,0,0,1.2202,1.2202,1.2221,1.2221,1.2203,1.2206,1.2207,1.2212,1.2211,1.221,1.2205,1.2204,1.2209,1.2209,1.2211,1.224,1.2209,1.221,1.2211,1.2269,1.2271,1.2272,0,0,0,0,0,0,1.2201,1.2203,1.2221,1.2211,1.2213,1.2208,1.2214,1.2213,1.2216,1.2211,1.221,1.221,1.2208,1.2209,1.2225,1.2239,1.2211,1.2212,1.2268,1.227,1.2271,1.2297,0,0,0,0,0,0,1.22,1.2203,1.2212,1.2212,1.2214,1.2236,1.2215,1.2213,1.2218,1.2215,1.2215,1.2214,1.2207,1.2224,1.2226,1.224,1.2212,1.2267,1.2269,1.2271,1.2295,1.23,1.2303,0,0,0,0,0,1.2199,1.2219,1.2213,1.2215,1.2225,1.2236,1.2238,1.223,1.2219,1.2228,1.2225,1.2214,1.2238,1.2226,1.2228,1.2243,1.2266,1.2268,1.2271,1.2293,1.2299,1.2303,0,0,0,0,0,0,1.222,1.2218,1.2212,1.2231,1.2234,1.2233,1.2244,1.2236,1.2241,1.2239,1.2229,1.2229,1.2247,1.2246,1.2233,1.2267,1.225,1.2253,1.2266,1.2272,1.2276,1.2275,1.2213,0,0,0,0,0,1.2227,1.2237,1.2235,1.2252,1.2254,1.2249,1.2254,1.2248,1.225,1.2251,1.225,1.2252,1.2261,1.2266,1.2273,1.2295,1.2296,1.2307,1.2311,1.2314,1.2317,1.233,1.2335,1.2279,1.2279,1.2279,0,0,1.2241,1.2241,1.2248,1.2256,1.2258,1.2269,1.225,1.2262,1.227,1.2253,1.2268,1.2268,1.227,1.229,1.2298,1.229,1.2332,1.2317,1.232,1.232,1.2333,1.2338,1.2343,1.2281,1.2281,1.228,0,0,1.2272,1.2273,1.2288,1.2291,1.2294,1.2291,1.2295,1.2295,1.2295,1.231,1.2299,1.2308,1.2322,1.2325,1.2328,1.2363,1.2353,1.2365,1.2386,1.2399,1.2404,1.2408,1.2421,1.2426,1.2368,1.2368,1.2368,0,1.2289,1.2304,1.2297,1.231,1.2315,1.2302,1.2318,1.232,1.2326,1.2329,1.232,1.2338,1.2339,1.236,1.2369,1.2371,1.2376,1.2365,1.2404,1.2408,1.2411,1.2424,1.2429,1.2369,1.2369,1.2369,1.2369,0,1.2326,1.2337,1.2349,1.2356,1.2362,1.2376,1.2372,1.2379,1.2373,1.2371,1.2388,1.2389,1.2396,1.2401,1.2395,1.2422,1.2416,1.2406,1.2388,1.2418,1.243,1.2435,1.2372,1.2371,1.2371,1.237,0,0,1.2368,1.2372,1.2377,1.2381,1.2384,1.2393,1.2408,1.2416,1.2423,1.2427,1.244,1.2453,1.2444,1.2448,1.2442,1.2453,1.2482,1.2441,1.2441,1.2449,1.2513,1.2522,1.2527,1.2476,1.2477,1.2478,1.2514,0,1.2399,1.2424,1.2419,1.2444,1.2455,1.2444,1.2457,1.2461,1.246,1.2469,1.2468,1.2478,1.2464,1.2467,1.2478,1.2477,1.2495,1.2474,1.2488,1.2488,1.2488,1.2533,1.2542,1.2575,1.2518,1.2519,1.2519,0,1.2438,1.2446,1.2472,1.2476,1.2481,1.2492,1.2501,1.251,1.2515,1.2513,1.2519,1.2512,1.2526,1.251,1.2531,1.2516,1.2522,1.2522,1.2523,1.2524,1.2506,1.2536,1.2586,1.2591,1.2526,1.2526,1.2525,0,1.2468,1.2485,1.2503,1.2507,1.2511,1.252,1.2522,1.2526,1.2532,1.254,1.2544,1.2553,1.2558,1.2565,1.2561,1.2548,1.2583,1.2565,1.2582,1.2582,1.259,1.2589,1.2641,1.2593,1.2593,1.2593,1.2592,0,1.2503,1.252,1.2517,1.2528,1.2547,1.2541,1.256,1.2561,1.2565,1.2577,1.2567,1.2578,1.2572,1.2582,1.2579,1.2598,1.26,1.2599,1.2598,1.26,1.26,1.2604,1.2601,1.2594,1.2594,1.2593,1.2593,0,1.2539,1.2537,1.2557,1.2561,1.2562,1.2576,1.2579,1.259,1.2589,1.2604,1.2607,1.2606,1.2618,1.2615,1.2627,1.2625,1.2649,1.2645,1.2648,1.2647,1.2665,1.2663,1.2721,1.2729,1.2675,1.2675,1.2676,0,1.2562,1.2575,1.2581,1.2588,1.2592,1.2604,1.2611,1.2606,1.2614,1.2621,1.2632,1.2643,1.2652,1.2673,1.2673,1.2683,1.2679,1.2699,1.2681,1.2683,1.268,1.268,1.2682,1.2702,1.2703,1.2703,1.2704,0,1.2603,1.2602,1.2612,1.2624,1.2632,1.2641,1.2648,1.2654,1.2651,1.266,1.2673,1.268,1.2695,1.2707,1.2717,1.2719,1.2711,1.271,1.2714,1.2717,1.2718,1.2719,1.2658,1.2708,1.2708,1.2707,1.2707,1.2707,1.2633,1.2645,1.2651,1.2664,1.2669,1.2677,1.2688,1.2689,1.2701,1.2712,1.2709,1.2725,1.273,1.2743,1.2747,1.2759,1.2752,1.2758,1.276,1.2762,1.2764,1.2717,1.2761,1.2761,1.276,1.276,1.276,0,1.2674,1.2679,1.269,1.2702,1.2712,1.2705,1.2713,1.2722,1.2736,1.2743,1.2753,1.2769,1.2781,1.2783,1.2794,1.2804,1.2801,1.2807,1.2806,1.2807,1.277,1.2765,1.281,1.281,1.281,1.281,1.281,1.2809,1.2697,1.2717,1.2717,1.274,1.2744,1.276,1.2765,1.2773,1.2778,1.2797,1.2807,1.2809,1.2814,1.2826,1.2838,1.2838,1.2843,1.2851,1.285,1.2815,1.281,1.2805,1.2801,1.2852,1.2852,1.2886,1.2887,1.2887]}]]